Вернуться в каталог

STARLINK-3778

АктивенСвязьVLEO
NORAD 52276·PAYLOAD·🇺🇸 United States

Запущен Apr 21, 2022 с Cape Canaveral Space Force Station

Loading…

Ближайшие Пролёты (ближайшие 24 часа)

TLE

СвежийSource: CelesTrak SupGP

Эпоха: Sep 15, 2026, 02:34 UTC

1 52276C 22041R   26258.10743056  .00044983  00000+0  13651-2 0  2583
2 52276  53.1600 332.9369 0001103  87.4924  20.8254 15.33524398    18

Отслеживайте STARLINK-3778 в реальном времени с AllMySat

Download on the App Store